Weather History for KAEX - November, 2010

Change the Weather History Date:

Saturday, November 6, 2010

  Actual Average Record
Temperature  
Mean Temperature 48 °F 61 °F  
Max Temperature 66 °F 73 °F 86 °F (2005)
Min Temperature 30 °F 48 °F 27 °F (1899)
Degree Days  
Heating Degree Days 17 6  
Month to date heating degree days 44 31  
Since 1 July heating degree days 80 104  
Moisture  
Dew Point 30 °F    
Average Humidity 58    
Maximum Humidity 96    
Minimum Humidity 19    
Precipitation  
Precipitation 0.00 in 0.15 in 2.63 in (1925)
Month to date precipitation 1.01 0.73  
Year to date precipitation 32.86 45.04  
Snow  
Snow 0.00 in - 0.00 in ()
Month to date snowfall 0.0  
Since 1 July snowfall 0.0  
Since 1 September snowfall 0.0  
Snow Depth 0.00 in    
Sea Level Pressure  
Sea Level Pressure 30.37 in    
Wind  
Wind Speed 1 mph (ENE)    
Max Wind Speed 8 mph    
Max Gust Speed 12 mph    
Visibility 10 miles    
Events      
T = Trace of Precipitation, MM = Missing Value Source: NWS Daily Summary

Daily Weather History Graph

Daily Weather History Graph

Search for Another Location

Airport or City:

Trip Planner

Search our weather history database for the weather conditions in past years. The results will help you decide how hot, cold, wet, or windy it might be!

Date:

Astronomy

Nov. 06, 2010 Rise Set
Actual Time 7:30 AM CDT 6:17 PM CDT
Civil Twilight 7:04 AM CDT 6:42 PM CDT
Nautical Twilight 6:35 AM CDT 7:11 PM CDT
Astronomical Twilight 6:07 AM CDT 7:39 PM CDT
Moon 8:00 AM CDT (11/6) 6:33 PM CDT (11/6)
Length of Visible Light 11h 37m
Length of Day
10h 47m
New Moon, 0% of the Moon is Illuminated
Nov 6
New Moon
Nov 13
First Quarter
Nov 21
Full
Nov 28
Last Quarter
Dec 5
New

Hourly Weather History & Observations

Time (CDT) Temp. Dew Point Humidity Pressure Visibility Wind Dir Wind Speed Gust Speed Precip Events Conditions
12:53 AM 36.0 °F 32.0 °F 86% 30.28 in 10.0 mi Calm Calm - N/A   Clear
1:53 AM 34.0 °F 32.0 °F 92% 30.29 in 10.0 mi Calm Calm - N/A   Clear
2:53 AM 35.1 °F 33.1 °F 92% 30.30 in 10.0 mi Calm Calm - N/A   Clear
3:53 AM 33.1 °F 30.0 °F 89% 30.31 in 10.0 mi Calm Calm - N/A   Clear
4:53 AM 33.1 °F 30.9 °F 92% 30.32 in 10.0 mi Calm Calm - N/A   Clear
5:53 AM 33.1 °F 30.9 °F 92% 30.34 in 10.0 mi Calm Calm - N/A   Clear
6:53 AM 32.0 °F 30.9 °F 96% 30.36 in 9.0 mi Calm Calm - N/A   Clear
7:53 AM 33.1 °F 30.9 °F 92% 30.38 in 10.0 mi Calm Calm - N/A   Clear
8:53 AM 37.9 °F 36.0 °F 93% 30.40 in 10.0 mi Calm Calm - N/A   Clear
9:53 AM 46.0 °F 39.0 °F 76% 30.42 in 10.0 mi Calm Calm - N/A   Clear
10:53 AM 54.0 °F 33.1 °F 45% 30.43 in 10.0 mi Calm Calm - N/A   Clear
11:53 AM 57.9 °F 28.0 °F 32% 30.42 in 10.0 mi South 3.5 mph - N/A   Clear
12:53 PM 61.0 °F 23.0 °F 23% 30.40 in 10.0 mi Calm Calm - N/A   Clear
1:53 PM 63.0 °F 21.9 °F 21% 30.38 in 10.0 mi Calm Calm - N/A   Clear
2:53 PM 64.0 °F 21.0 °F 19% 30.35 in 10.0 mi ENE 3.5 mph - N/A   Clear
3:53 PM 64.0 °F 21.0 °F 19% 30.35 in 10.0 mi East 3.5 mph - N/A   Clear
4:53 PM 64.9 °F 21.9 °F 19% 30.35 in 10.0 mi NNE 3.5 mph - N/A   Clear
5:53 PM 62.1 °F 25.0 °F 24% 30.35 in 10.0 mi NE 3.5 mph - N/A   Clear
6:53 PM 51.1 °F 33.1 °F 50% 30.36 in 10.0 mi Calm Calm - N/A   Clear
7:53 PM 48.0 °F 33.1 °F 56% 30.38 in 10.0 mi Calm Calm - N/A   Clear
8:53 PM 44.6 °F 33.8 °F 66% 30.39 in 10.0 mi Calm Calm - N/A   Clear
9:53 PM 45.0 °F 36.0 °F 71% 30.42 in 10.0 mi Calm Calm - N/A   Clear
10:53 PM 41.0 °F 36.0 °F 82% 30.43 in 10.0 mi Calm Calm - N/A   Clear
11:53 PM 39.9 °F 36.0 °F 86% 30.43 in 10.0 mi Calm Calm - N/A   Clear